Year,Month,Day,Hour,Minute,Value (Times are PST for temperature in C)
2011,08,21,00,00,19.20
2011,08,21,00,01,19.30
2011,08,21,00,02,19.30
2011,08,21,00,03,19.40
2011,08,21,00,04,19.40
2011,08,21,00,05,19.40
2011,08,21,00,06,19.40
2011,08,21,00,07,19.50
2011,08,21,00,08,19.50
2011,08,21,00,09,19.50
2011,08,21,00,10,19.50
2011,08,21,00,11,19.40
2011,08,21,00,12,19.40
2011,08,21,00,13,19.30
2011,08,21,00,14,19.30
2011,08,21,00,15,19.20
2011,08,21,00,16,19.10
2011,08,21,00,17,19.10
2011,08,21,00,18,19.10
2011,08,21,00,19,19.00
2011,08,21,00,20,18.90
2011,08,21,00,21,18.90
2011,08,21,00,22,18.80
2011,08,21,00,23,18.80
2011,08,21,00,24,18.70
2011,08,21,00,25,18.60
2011,08,21,00,26,18.60
2011,08,21,00,27,18.60
2011,08,21,00,28,18.50
2011,08,21,00,29,18.50
2011,08,21,00,30,18.50
2011,08,21,00,31,18.40
2011,08,21,00,32,18.40
2011,08,21,00,33,18.40
2011,08,21,00,34,18.40
2011,08,21,00,35,18.40
2011,08,21,00,36,18.40
2011,08,21,00,37,18.30
2011,08,21,00,38,18.30
2011,08,21,00,39,18.20
2011,08,21,00,40,18.20
2011,08,21,00,41,18.20
2011,08,21,00,42,18.20
2011,08,21,00,43,18.20
2011,08,21,00,44,18.10
2011,08,21,00,45,18.10
2011,08,21,00,46,18.10
2011,08,21,00,47,18.10
2011,08,21,00,48,18.10
2011,08,21,00,49,18.10
2011,08,21,00,50,18.00
2011,08,21,00,51,18.10
2011,08,21,00,52,18.10
2011,08,21,00,53,18.10
2011,08,21,00,54,18.10
2011,08,21,00,55,18.10
2011,08,21,00,56,18.10
2011,08,21,00,57,18.10
2011,08,21,00,58,18.10
2011,08,21,00,59,18.10
2011,08,21,01,00,18.10
2011,08,21,01,01,18.00
2011,08,21,01,02,18.00
2011,08,21,01,03,18.00
2011,08,21,01,04,18.10
2011,08,21,01,05,18.10
2011,08,21,01,06,18.10
2011,08,21,01,07,18.10
2011,08,21,01,08,18.10
2011,08,21,01,09,18.10
2011,08,21,01,10,18.10
2011,08,21,01,11,18.10
2011,08,21,01,12,18.10
2011,08,21,01,13,18.10
2011,08,21,01,14,18.10
2011,08,21,01,15,17.90
2011,08,21,01,16,17.90
2011,08,21,01,17,17.90
2011,08,21,01,18,17.90
2011,08,21,01,19,17.90
2011,08,21,01,20,17.90
2011,08,21,01,21,17.90
2011,08,21,01,22,17.90
2011,08,21,01,23,17.90
2011,08,21,01,24,17.90
2011,08,21,01,25,17.80
2011,08,21,01,26,17.80
2011,08,21,01,27,17.80
2011,08,21,01,28,17.70
2011,08,21,01,29,17.70
2011,08,21,01,30,17.70
2011,08,21,01,31,17.60
2011,08,21,01,32,17.50
2011,08,21,01,33,17.50
2011,08,21,01,34,17.40
2011,08,21,01,35,17.40
2011,08,21,01,36,17.40
2011,08,21,01,37,17.40
2011,08,21,01,38,17.30
2011,08,21,01,39,17.30
2011,08,21,01,40,17.30
2011,08,21,01,41,17.30
2011,08,21,01,42,17.30
2011,08,21,01,43,17.30
2011,08,21,01,44,17.30
2011,08,21,01,45,17.30
2011,08,21,01,46,17.30
2011,08,21,01,47,17.30
2011,08,21,01,48,17.30
2011,08,21,01,49,17.30
2011,08,21,01,50,17.40
2011,08,21,01,51,17.40
2011,08,21,01,52,17.40
2011,08,21,01,53,17.40
2011,08,21,01,54,17.40
2011,08,21,01,55,17.30
2011,08,21,01,56,17.30
2011,08,21,01,57,17.30
2011,08,21,01,58,17.30
2011,08,21,01,59,17.30
2011,08,21,02,00,17.30
2011,08,21,02,01,17.30
2011,08,21,02,02,17.30
2011,08,21,02,03,17.30
2011,08,21,02,04,17.30
2011,08,21,02,05,17.30
2011,08,21,02,06,17.30
2011,08,21,02,07,17.30
2011,08,21,02,08,17.30
2011,08,21,02,09,17.30
2011,08,21,02,10,17.30
2011,08,21,02,11,17.30
2011,08,21,02,12,17.30
2011,08,21,02,13,17.30
2011,08,21,02,14,17.30
2011,08,21,02,15,17.30
2011,08,21,02,16,17.30
2011,08,21,02,17,17.30
2011,08,21,02,18,17.30
2011,08,21,02,19,17.30
2011,08,21,02,20,17.30
2011,08,21,02,21,17.30
2011,08,21,02,22,17.30
2011,08,21,02,23,17.30
2011,08,21,02,24,17.30
2011,08,21,02,25,17.30
2011,08,21,02,26,17.30
2011,08,21,02,27,17.30
2011,08,21,02,28,17.30
2011,08,21,02,29,17.30
2011,08,21,02,30,17.30
2011,08,21,02,31,17.30
2011,08,21,02,32,17.30
2011,08,21,02,33,17.30
2011,08,21,02,34,17.30
2011,08,21,02,35,17.30
2011,08,21,02,36,17.30
2011,08,21,02,37,17.30
2011,08,21,02,38,17.30
2011,08,21,02,39,17.30
2011,08,21,02,40,17.30
2011,08,21,02,41,17.30
2011,08,21,02,42,17.30
2011,08,21,02,43,17.20
2011,08,21,02,44,17.20
2011,08,21,02,45,17.20
2011,08,21,02,46,17.20
2011,08,21,02,47,17.20
2011,08,21,02,48,17.10
2011,08,21,02,49,17.10
2011,08,21,02,50,17.10
2011,08,21,02,51,17.10
2011,08,21,02,52,17.10
2011,08,21,02,53,17.00
2011,08,21,02,54,17.00
2011,08,21,02,55,17.00
2011,08,21,02,56,17.00
2011,08,21,02,57,17.00
2011,08,21,02,58,16.90
2011,08,21,02,59,16.90
2011,08,21,03,00,16.80
2011,08,21,03,01,16.80
2011,08,21,03,02,16.70
2011,08,21,03,03,16.70
2011,08,21,03,04,16.70
2011,08,21,03,05,16.70
2011,08,21,03,06,16.70
2011,08,21,03,07,16.60
2011,08,21,03,08,16.60
2011,08,21,03,09,16.50
2011,08,21,03,10,16.40
2011,08,21,03,11,16.40
2011,08,21,03,12,16.40
2011,08,21,03,13,16.40
2011,08,21,03,14,16.40
2011,08,21,03,15,16.30
2011,08,21,03,16,16.30
2011,08,21,03,17,16.30
2011,08,21,03,18,16.20
2011,08,21,03,19,16.20
2011,08,21,03,20,16.10
2011,08,21,03,21,16.10
2011,08,21,03,22,16.10
2011,08,21,03,23,16.00
2011,08,21,03,24,15.90
2011,08,21,03,25,15.90
2011,08,21,03,26,15.90
2011,08,21,03,27,15.90
2011,08,21,03,28,15.90
2011,08,21,03,29,15.90
2011,08,21,03,30,15.90
2011,08,21,03,31,15.90
2011,08,21,03,32,15.90
2011,08,21,03,33,16.00
2011,08,21,03,34,16.10
2011,08,21,03,35,16.10
2011,08,21,03,36,16.10
2011,08,21,03,37,16.10
2011,08,21,03,38,16.10
2011,08,21,03,39,16.10
2011,08,21,03,40,16.10
2011,08,21,03,41,16.10
2011,08,21,03,42,16.10
2011,08,21,03,43,16.10
2011,08,21,03,44,16.10
2011,08,21,03,45,16.10
2011,08,21,03,46,16.10
2011,08,21,03,47,16.10
2011,08,21,03,48,16.20
2011,08,21,03,49,16.20
2011,08,21,03,50,16.20
2011,08,21,03,51,16.30
2011,08,21,03,52,16.30
2011,08,21,03,53,16.30
2011,08,21,03,54,16.40
2011,08,21,03,55,16.40
2011,08,21,03,56,16.40
2011,08,21,03,57,16.40
2011,08,21,03,58,16.60
2011,08,21,03,59,16.60
2011,08,21,04,00,16.70
2011,08,21,04,01,16.70
2011,08,21,04,02,16.70
2011,08,21,04,03,16.80
2011,08,21,04,04,16.90
2011,08,21,04,05,16.90
2011,08,21,04,06,17.00
2011,08,21,04,07,17.00
2011,08,21,04,08,17.10
2011,08,21,04,09,17.10
2011,08,21,04,10,17.10
2011,08,21,04,11,17.20
2011,08,21,04,12,17.20
2011,08,21,04,13,17.20
2011,08,21,04,14,17.30
2011,08,21,04,15,17.30
2011,08,21,04,16,17.30
2011,08,21,04,17,17.30
2011,08,21,04,18,17.30
2011,08,21,04,19,17.30
2011,08,21,04,20,17.30
2011,08,21,04,21,17.30
2011,08,21,04,22,17.30
2011,08,21,04,23,17.30
2011,08,21,04,24,17.30
2011,08,21,04,25,17.30
2011,08,21,04,26,17.30
2011,08,21,04,27,17.30
2011,08,21,04,28,17.30
2011,08,21,04,29,17.30
2011,08,21,04,30,17.30
2011,08,21,04,31,17.30
2011,08,21,04,32,17.30
2011,08,21,04,33,17.30
2011,08,21,04,34,17.30
2011,08,21,04,35,17.30
2011,08,21,04,36,17.30
2011,08,21,04,37,17.30
2011,08,21,04,38,17.30
2011,08,21,04,39,17.40
2011,08,21,04,40,17.40
2011,08,21,04,41,17.50
2011,08,21,04,42,17.50
2011,08,21,04,43,17.50
2011,08,21,04,44,17.50
2011,08,21,04,45,17.60
2011,08,21,04,46,17.60
2011,08,21,04,47,17.60
2011,08,21,04,48,17.60
2011,08,21,04,49,17.60
2011,08,21,04,50,17.60
2011,08,21,04,51,17.60
2011,08,21,04,52,17.50
2011,08,21,04,53,17.50
2011,08,21,04,54,17.50
2011,08,21,04,55,17.50
2011,08,21,04,56,17.50
2011,08,21,04,57,17.40
2011,08,21,04,58,17.30
2011,08,21,04,59,17.30
2011,08,21,05,00,17.30
2011,08,21,05,01,17.30
2011,08,21,05,02,17.20
2011,08,21,05,03,17.20
2011,08,21,05,04,17.20
2011,08,21,05,05,17.10
2011,08,21,05,06,17.10
2011,08,21,05,07,17.10
2011,08,21,05,08,17.10
2011,08,21,05,09,17.00
2011,08,21,05,10,17.00
2011,08,21,05,11,17.00
2011,08,21,05,12,17.00
2011,08,21,05,13,16.90
2011,08,21,05,14,16.90
2011,08,21,05,15,16.90
2011,08,21,05,16,16.80
2011,08,21,05,17,16.80
2011,08,21,05,18,16.80
2011,08,21,05,19,16.70
2011,08,21,05,20,16.70
2011,08,21,05,21,16.70
2011,08,21,05,22,16.70
2011,08,21,05,23,16.70
2011,08,21,05,24,16.70
2011,08,21,05,25,16.70
2011,08,21,05,26,16.70
2011,08,21,05,27,16.70
2011,08,21,05,28,16.70
2011,08,21,05,29,16.70
2011,08,21,05,30,16.70
2011,08,21,05,31,16.70
2011,08,21,05,32,16.70
2011,08,21,05,33,16.70
2011,08,21,05,34,16.70
2011,08,21,05,35,16.70
2011,08,21,05,36,16.70
2011,08,21,05,37,16.70
2011,08,21,05,38,16.70
2011,08,21,05,39,16.70
2011,08,21,05,40,16.70
2011,08,21,05,41,16.70
2011,08,21,05,42,16.70
2011,08,21,05,43,16.70
2011,08,21,05,44,16.70
2011,08,21,05,45,16.70
2011,08,21,05,46,16.70
2011,08,21,05,47,16.70
2011,08,21,05,48,16.70
2011,08,21,05,49,16.70
2011,08,21,05,50,16.70
2011,08,21,05,51,16.70
2011,08,21,05,52,16.70
2011,08,21,05,53,16.70
2011,08,21,05,54,16.70
2011,08,21,05,55,16.70
2011,08,21,05,56,16.70
2011,08,21,05,57,16.60
2011,08,21,05,58,16.60
2011,08,21,05,59,16.60
2011,08,21,06,00,16.60
2011,08,21,06,01,16.60
2011,08,21,06,02,16.60
2011,08,21,06,03,16.50
2011,08,21,06,04,16.40
2011,08,21,06,05,16.40
2011,08,21,06,06,16.40
2011,08,21,06,07,16.40
2011,08,21,06,08,16.40
2011,08,21,06,09,16.40
2011,08,21,06,10,16.40
2011,08,21,06,11,16.40
2011,08,21,06,12,16.40
2011,08,21,06,13,16.40
2011,08,21,06,14,16.40
2011,08,21,06,15,16.40
2011,08,21,06,16,16.40
2011,08,21,06,17,16.40
2011,08,21,06,18,16.40
2011,08,21,06,19,16.40
2011,08,21,06,20,16.40
2011,08,21,06,21,16.40
2011,08,21,06,22,16.40
2011,08,21,06,23,16.40
2011,08,21,06,24,16.40
2011,08,21,06,25,16.40
2011,08,21,06,26,16.50
2011,08,21,06,27,16.60
2011,08,21,06,28,16.60
2011,08,21,06,29,16.60
2011,08,21,06,30,16.60
2011,08,21,06,31,16.60
2011,08,21,06,32,16.60
2011,08,21,06,33,16.60
2011,08,21,06,34,16.60
2011,08,21,06,35,16.60
2011,08,21,06,36,16.60
2011,08,21,06,37,16.60
2011,08,21,06,38,16.70
2011,08,21,06,39,16.70
2011,08,21,06,40,16.70
2011,08,21,06,41,16.70
2011,08,21,06,42,16.70
2011,08,21,06,43,16.70
2011,08,21,06,44,16.70
2011,08,21,06,45,16.80
2011,08,21,06,46,16.80
2011,08,21,06,47,16.80
2011,08,21,06,48,16.90
2011,08,21,06,49,16.90
2011,08,21,06,50,16.90
2011,08,21,06,51,17.00
2011,08,21,06,52,17.00
2011,08,21,06,53,17.00
2011,08,21,06,54,17.00
2011,08,21,06,55,17.10
2011,08,21,06,56,17.10
2011,08,21,06,57,17.10
2011,08,21,06,58,17.20
2011,08,21,06,59,17.20
2011,08,21,07,00,17.20
2011,08,21,07,01,17.20
2011,08,21,07,02,17.20
2011,08,21,07,03,17.20
2011,08,21,07,04,17.10
2011,08,21,07,05,17.10
2011,08,21,07,06,17.10
2011,08,21,07,07,17.10
2011,08,21,07,08,17.10
2011,08,21,07,09,17.00
2011,08,21,07,10,17.00
2011,08,21,07,11,17.00
2011,08,21,07,12,17.00
2011,08,21,07,13,17.00
2011,08,21,07,14,17.00
2011,08,21,07,15,17.00
2011,08,21,07,16,17.00
2011,08,21,07,17,17.00
2011,08,21,07,18,17.00
2011,08,21,07,19,17.00
2011,08,21,07,20,17.00
2011,08,21,07,21,17.00
2011,08,21,07,22,17.00
2011,08,21,07,23,17.00
2011,08,21,07,24,17.00
2011,08,21,07,25,17.00
2011,08,21,07,26,17.00
2011,08,21,07,27,17.00
2011,08,21,07,28,17.00
2011,08,21,07,29,17.00
2011,08,21,07,30,17.00
2011,08,21,07,31,17.00
2011,08,21,07,32,17.00
2011,08,21,07,33,17.00
2011,08,21,07,34,17.00
2011,08,21,07,35,17.10
2011,08,21,07,36,17.10
2011,08,21,07,37,17.10
2011,08,21,07,38,17.10
2011,08,21,07,39,17.10
2011,08,21,07,40,17.10
2011,08,21,07,41,17.10
2011,08,21,07,42,17.10
2011,08,21,07,43,17.10
2011,08,21,07,44,17.20
2011,08,21,07,45,17.20
2011,08,21,07,46,17.20
2011,08,21,07,47,17.20
2011,08,21,07,48,17.20
2011,08,21,07,49,17.20
2011,08,21,07,50,17.20
2011,08,21,07,51,17.20
2011,08,21,07,52,17.20
2011,08,21,07,53,17.10
2011,08,21,07,54,17.00
2011,08,21,07,55,16.90
2011,08,21,07,56,16.80
2011,08,21,07,57,16.70
2011,08,21,07,58,16.70
2011,08,21,07,59,16.70
2011,08,21,08,00,16.70
2011,08,21,08,01,16.70
2011,08,21,08,02,16.60
2011,08,21,08,03,16.60
2011,08,21,08,04,16.50
2011,08,21,08,05,16.40
2011,08,21,08,06,16.40
2011,08,21,08,07,16.30
2011,08,21,08,08,16.30
2011,08,21,08,09,16.30
2011,08,21,08,10,16.40
2011,08,21,08,11,16.40
2011,08,21,08,12,16.40
2011,08,21,08,13,16.40
2011,08,21,08,14,16.40
2011,08,21,08,15,16.40
2011,08,21,08,16,16.40
2011,08,21,08,17,16.40
2011,08,21,08,18,16.50
2011,08,21,08,19,16.60
2011,08,21,08,20,16.60
2011,08,21,08,21,16.60
2011,08,21,08,22,16.70
2011,08,21,08,23,16.70
2011,08,21,08,24,16.70
2011,08,21,08,25,16.80
2011,08,21,08,26,16.90
2011,08,21,08,27,16.90
2011,08,21,08,28,16.90
2011,08,21,08,29,17.00
2011,08,21,08,30,17.00
2011,08,21,08,31,17.10
2011,08,21,08,32,17.00
2011,08,21,08,33,17.00
2011,08,21,08,34,17.10
2011,08,21,08,35,17.10
2011,08,21,08,36,17.20
2011,08,21,08,37,17.20
2011,08,21,08,38,17.30
2011,08,21,08,39,17.30
2011,08,21,08,40,17.40
2011,08,21,08,41,17.50
2011,08,21,08,42,17.50
2011,08,21,08,43,17.60
2011,08,21,08,44,17.60
2011,08,21,08,45,17.70
2011,08,21,08,46,17.70
2011,08,21,08,47,17.70
2011,08,21,08,48,17.70
2011,08,21,08,49,17.80
2011,08,21,08,50,17.80
2011,08,21,08,51,17.90
2011,08,21,08,52,17.90
2011,08,21,08,53,17.90
2011,08,21,08,54,18.10
2011,08,21,08,55,18.10
2011,08,21,08,56,18.20
2011,08,21,08,57,18.30
2011,08,21,08,58,18.40
2011,08,21,08,59,18.40
2011,08,21,09,00,18.50
2011,08,21,09,01,18.50
2011,08,21,09,02,18.60
2011,08,21,09,03,18.70
2011,08,21,09,04,18.70
2011,08,21,09,05,18.70
2011,08,21,09,06,18.80
2011,08,21,09,07,18.90
2011,08,21,09,08,18.90
2011,08,21,09,09,18.80
2011,08,21,09,10,18.80
2011,08,21,09,11,18.80
2011,08,21,09,12,18.70
2011,08,21,09,13,18.80
2011,08,21,09,14,18.80
2011,08,21,09,15,18.80
2011,08,21,09,16,18.80
2011,08,21,09,17,18.80
2011,08,21,09,18,18.80
2011,08,21,09,19,18.80
2011,08,21,09,20,18.80
2011,08,21,09,21,18.90
2011,08,21,09,22,18.90
2011,08,21,09,23,18.90
2011,08,21,09,24,18.80
2011,08,21,09,25,18.80
2011,08,21,09,26,18.80
2011,08,21,09,27,18.80
2011,08,21,09,28,18.80
2011,08,21,09,29,18.80
2011,08,21,09,30,18.80
2011,08,21,09,31,18.80
2011,08,21,09,32,18.80
2011,08,21,09,33,18.70
2011,08,21,09,34,18.70
2011,08,21,09,35,18.70
2011,08,21,09,36,18.60
2011,08,21,09,37,18.60
2011,08,21,09,38,18.60
2011,08,21,09,39,18.60
2011,08,21,09,40,18.60
2011,08,21,09,41,18.70
2011,08,21,09,42,18.90
2011,08,21,09,43,19.00
2011,08,21,09,44,19.10
2011,08,21,09,45,19.20
2011,08,21,09,46,19.40
2011,08,21,09,47,19.50
2011,08,21,09,48,19.60
2011,08,21,09,49,19.60
2011,08,21,09,50,19.60
2011,08,21,09,51,19.60
2011,08,21,09,52,19.70
2011,08,21,09,53,19.80
2011,08,21,09,54,19.90
2011,08,21,09,55,20.00
2011,08,21,09,56,20.10
2011,08,21,09,57,20.20
2011,08,21,09,58,20.20
2011,08,21,09,59,20.20
2011,08,21,10,00,20.30
2011,08,21,10,01,20.30
2011,08,21,10,02,20.30
2011,08,21,10,03,20.30
2011,08,21,10,04,20.30
2011,08,21,10,05,20.20
2011,08,21,10,06,20.00
2011,08,21,10,07,19.80
2011,08,21,10,08,19.60
2011,08,21,10,09,19.50
2011,08,21,10,10,19.50
2011,08,21,10,11,19.50
2011,08,21,10,12,19.50
2011,08,21,10,13,19.50
2011,08,21,10,14,19.40
2011,08,21,10,15,19.50
2011,08,21,10,16,19.50
2011,08,21,10,17,19.50
2011,08,21,10,18,19.60
2011,08,21,10,19,19.60
2011,08,21,10,20,19.60
2011,08,21,10,21,19.60
2011,08,21,10,22,19.50
2011,08,21,10,23,19.50
2011,08,21,10,24,19.40
2011,08,21,10,25,19.40
2011,08,21,10,26,19.40
2011,08,21,10,27,19.40
2011,08,21,10,28,19.50
2011,08,21,10,29,19.50
2011,08,21,10,30,19.60
2011,08,21,10,31,19.60
2011,08,21,10,32,19.70
2011,08,21,10,33,19.80
2011,08,21,10,34,19.90
2011,08,21,10,35,19.90
2011,08,21,10,36,20.00
2011,08,21,10,37,20.10
2011,08,21,10,38,20.20
2011,08,21,10,39,20.20
2011,08,21,10,40,20.30
2011,08,21,10,41,20.40
2011,08,21,10,42,20.50
2011,08,21,10,43,20.60
2011,08,21,10,44,20.70
2011,08,21,10,45,20.80
2011,08,21,10,46,20.90
2011,08,21,10,47,21.00
2011,08,21,10,48,21.00
2011,08,21,10,49,21.00
2011,08,21,10,50,21.10
2011,08,21,10,51,21.10
2011,08,21,10,52,21.10
2011,08,21,10,53,21.20
2011,08,21,10,54,21.30
2011,08,21,10,55,21.30
2011,08,21,10,56,21.30
2011,08,21,10,57,21.30
2011,08,21,10,58,21.50
2011,08,21,10,59,21.60
2011,08,21,11,00,21.70
2011,08,21,11,01,21.90
2011,08,21,11,02,22.00
2011,08,21,11,03,22.20
2011,08,21,11,04,22.30
2011,08,21,11,05,22.50
2011,08,21,11,06,22.70
2011,08,21,11,07,22.80
2011,08,21,11,08,22.90
2011,08,21,11,09,23.00
2011,08,21,11,10,23.10
2011,08,21,11,11,23.10
2011,08,21,11,12,23.10
2011,08,21,11,13,23.20
2011,08,21,11,14,23.30
2011,08,21,11,15,23.30
2011,08,21,11,16,23.30
2011,08,21,11,17,23.30
2011,08,21,11,18,23.30
2011,08,21,11,19,23.40
2011,08,21,11,20,23.50
2011,08,21,11,21,23.60
2011,08,21,11,22,23.70
2011,08,21,11,23,23.70
2011,08,21,11,24,23.70
2011,08,21,11,25,23.70
2011,08,21,11,26,23.70
2011,08,21,11,27,23.70
2011,08,21,11,28,23.70
2011,08,21,11,29,23.80
2011,08,21,11,30,23.80
2011,08,21,11,31,23.80
2011,08,21,11,32,23.70
2011,08,21,11,33,23.70
2011,08,21,11,34,23.70
2011,08,21,11,35,23.70
2011,08,21,11,36,23.70
2011,08,21,11,37,23.70
2011,08,21,11,38,23.70
2011,08,21,11,39,23.70
2011,08,21,11,40,23.70
2011,08,21,11,41,23.70
2011,08,21,11,42,23.70
2011,08,21,11,43,23.70
2011,08,21,11,44,23.80
2011,08,21,11,45,23.80
2011,08,21,11,46,23.80
2011,08,21,11,47,23.80
2011,08,21,11,48,23.80
2011,08,21,11,49,23.80
2011,08,21,11,50,23.80
2011,08,21,11,51,23.90
2011,08,21,11,52,23.90
2011,08,21,11,53,23.90
2011,08,21,11,54,24.00
2011,08,21,11,55,24.10
2011,08,21,11,56,24.10
2011,08,21,11,57,24.10
2011,08,21,11,58,24.20
2011,08,21,11,59,24.30
2011,08,21,12,00,24.40
2011,08,21,12,01,24.50
2011,08,21,12,02,24.50
2011,08,21,12,03,24.50
2011,08,21,12,04,24.60
2011,08,21,12,05,24.50
2011,08,21,12,06,24.50
2011,08,21,12,07,24.60
2011,08,21,12,08,24.60
2011,08,21,12,09,24.60
2011,08,21,12,10,24.60
2011,08,21,12,11,24.60
2011,08,21,12,12,24.70
2011,08,21,12,13,24.80
2011,08,21,12,14,24.90
2011,08,21,12,15,25.00
2011,08,21,12,16,25.10
2011,08,21,12,17,25.20
2011,08,21,12,18,25.40
2011,08,21,12,19,25.40
2011,08,21,12,20,25.40
2011,08,21,12,21,25.50
2011,08,21,12,22,25.50
2011,08,21,12,23,25.50
2011,08,21,12,24,25.50
2011,08,21,12,25,25.40
2011,08,21,12,26,25.40
2011,08,21,12,27,25.50
2011,08,21,12,28,25.50
2011,08,21,12,29,25.50
2011,08,21,12,30,25.60
2011,08,21,12,31,25.60
2011,08,21,12,32,25.60
2011,08,21,12,33,25.60
2011,08,21,12,34,25.60
2011,08,21,12,35,25.60
2011,08,21,12,36,25.60
2011,08,21,12,37,25.60
2011,08,21,12,38,25.60
2011,08,21,12,39,25.60
2011,08,21,12,40,25.60
2011,08,21,12,41,25.60
2011,08,21,12,42,25.70
2011,08,21,12,43,25.80
2011,08,21,12,44,25.80
2011,08,21,12,45,25.80
2011,08,21,12,46,25.80
2011,08,21,12,47,25.80
2011,08,21,12,48,25.90
2011,08,21,12,49,25.90
2011,08,21,12,50,25.80
2011,08,21,12,51,25.80
2011,08,21,12,52,25.80
2011,08,21,12,53,25.80
2011,08,21,12,54,25.80
2011,08,21,12,55,25.80
2011,08,21,12,56,25.80
2011,08,21,12,57,25.80
2011,08,21,12,58,25.70
2011,08,21,12,59,25.80
2011,08,21,13,00,25.80
2011,08,21,13,01,25.70
2011,08,21,13,02,25.70
2011,08,21,13,03,25.70
2011,08,21,13,04,25.80
2011,08,21,13,05,25.80
2011,08,21,13,06,25.80
2011,08,21,13,07,25.80
2011,08,21,13,08,25.80
2011,08,21,13,09,25.80
2011,08,21,13,10,25.80
2011,08,21,13,11,25.80
2011,08,21,13,12,25.80
2011,08,21,13,13,25.70
2011,08,21,13,14,25.70
2011,08,21,13,15,25.70
2011,08,21,13,16,25.70
2011,08,21,13,17,25.70
2011,08,21,13,18,25.70
2011,08,21,13,19,25.70
2011,08,21,13,20,25.70
2011,08,21,13,21,25.70
2011,08,21,13,22,25.60
2011,08,21,13,23,25.60
2011,08,21,13,24,25.50
2011,08,21,13,25,25.50
2011,08,21,13,26,25.60
2011,08,21,13,27,25.60
2011,08,21,13,28,25.60
2011,08,21,13,29,25.60
2011,08,21,13,30,25.60
2011,08,21,13,31,25.60
2011,08,21,13,32,25.60
2011,08,21,13,33,25.60
2011,08,21,13,34,25.60
2011,08,21,13,35,25.60
2011,08,21,13,36,25.60
2011,08,21,13,37,25.70
2011,08,21,13,38,25.70
2011,08,21,13,39,25.80
2011,08,21,13,40,25.80
2011,08,21,13,41,25.90
2011,08,21,13,42,25.90
2011,08,21,13,43,25.90
2011,08,21,13,44,25.90
2011,08,21,13,45,25.90
2011,08,21,13,46,26.00
2011,08,21,13,47,26.00
2011,08,21,13,48,26.10
2011,08,21,13,49,26.20
2011,08,21,13,50,26.30
2011,08,21,13,51,26.40
2011,08,21,13,52,26.50
2011,08,21,13,53,26.60
2011,08,21,13,54,26.70
2011,08,21,13,55,26.80
2011,08,21,13,56,26.90
2011,08,21,13,57,27.00
2011,08,21,13,58,27.10
2011,08,21,13,59,27.20
2011,08,21,14,00,27.30
2011,08,21,14,01,27.10
2011,08,21,14,02,27.00
2011,08,21,14,03,26.80
2011,08,21,14,04,26.80
2011,08,21,14,05,26.80
2011,08,21,14,06,26.80
2011,08,21,14,07,26.80
2011,08,21,14,08,26.80
2011,08,21,14,09,26.80
2011,08,21,14,10,26.80
2011,08,21,14,11,26.80
2011,08,21,14,12,26.70
2011,08,21,14,13,26.70
2011,08,21,14,14,26.60
2011,08,21,14,15,26.40
2011,08,21,14,16,26.30
2011,08,21,14,17,26.20
2011,08,21,14,18,26.20
2011,08,21,14,19,26.30
2011,08,21,14,20,26.30
2011,08,21,14,21,26.30
2011,08,21,14,22,26.30
2011,08,21,14,23,26.40
2011,08,21,14,24,26.40
2011,08,21,14,25,26.40
2011,08,21,14,26,26.40
2011,08,21,14,27,26.50
2011,08,21,14,28,26.60
2011,08,21,14,29,26.60
2011,08,21,14,30,26.50
2011,08,21,14,31,26.40
2011,08,21,14,32,26.50
2011,08,21,14,33,26.60
2011,08,21,14,34,26.50
2011,08,21,14,35,26.40
2011,08,21,14,36,26.20
2011,08,21,14,37,26.00
2011,08,21,14,38,25.90
2011,08,21,14,39,25.80
2011,08,21,14,40,25.60
2011,08,21,14,41,25.50
2011,08,21,14,42,25.40
2011,08,21,14,43,25.30
2011,08,21,14,44,25.30
2011,08,21,14,45,25.30
2011,08,21,14,46,25.20
2011,08,21,14,47,25.10
2011,08,21,14,48,25.00
2011,08,21,14,49,25.00
2011,08,21,14,50,25.00
2011,08,21,14,51,25.10
2011,08,21,14,52,25.10
2011,08,21,14,53,25.20
2011,08,21,14,54,25.20
2011,08,21,14,55,25.20
2011,08,21,14,56,25.10
2011,08,21,14,57,25.10
2011,08,21,14,58,25.10
2011,08,21,14,59,25.10
2011,08,21,15,00,25.20
2011,08,21,15,01,25.20
2011,08,21,15,02,25.30
2011,08,21,15,03,25.30
2011,08,21,15,04,25.40
2011,08,21,15,05,25.40
2011,08,21,15,06,25.30
2011,08,21,15,07,25.10
2011,08,21,15,08,25.00
2011,08,21,15,09,24.90
2011,08,21,15,10,24.90
2011,08,21,15,11,24.90
2011,08,21,15,12,24.90
2011,08,21,15,13,24.80
2011,08,21,15,14,24.80
2011,08,21,15,15,24.80
2011,08,21,15,16,24.80
2011,08,21,15,17,24.80
2011,08,21,15,18,24.80
2011,08,21,15,19,24.70
2011,08,21,15,20,24.70
2011,08,21,15,21,24.60
2011,08,21,15,22,24.60
2011,08,21,15,23,24.60
2011,08,21,15,24,24.60
2011,08,21,15,25,24.70
2011,08,21,15,26,24.70
2011,08,21,15,27,24.70
2011,08,21,15,28,24.80
2011,08,21,15,29,24.90
2011,08,21,15,30,24.90
2011,08,21,15,31,25.10
2011,08,21,15,32,25.20
2011,08,21,15,33,25.40
2011,08,21,15,34,25.50
2011,08,21,15,35,25.60
2011,08,21,15,36,25.60
2011,08,21,15,37,25.60
2011,08,21,15,38,25.60
2011,08,21,15,39,25.60
2011,08,21,15,40,25.60
2011,08,21,15,41,25.50
2011,08,21,15,42,25.50
2011,08,21,15,43,25.40
2011,08,21,15,44,25.40
2011,08,21,15,45,25.20
2011,08,21,15,46,25.20
2011,08,21,15,47,25.20
2011,08,21,15,48,25.20
2011,08,21,15,49,25.20
2011,08,21,15,50,25.20
2011,08,21,15,51,25.30
2011,08,21,15,52,25.20
2011,08,21,15,53,25.20
2011,08,21,15,54,25.10
2011,08,21,15,55,25.10
2011,08,21,15,56,25.20
2011,08,21,15,57,25.20
2011,08,21,15,58,25.30
2011,08,21,15,59,25.40
2011,08,21,16,00,25.50
2011,08,21,16,01,25.60
2011,08,21,16,02,25.70
2011,08,21,16,03,25.70
2011,08,21,16,04,25.60
2011,08,21,16,05,25.60
2011,08,21,16,06,25.60
2011,08,21,16,07,25.50
2011,08,21,16,08,25.50
2011,08,21,16,09,25.50
2011,08,21,16,10,25.50
2011,08,21,16,11,25.50
2011,08,21,16,12,25.60
2011,08,21,16,13,25.60
2011,08,21,16,14,25.50
2011,08,21,16,15,25.50
2011,08,21,16,16,25.50
2011,08,21,16,17,25.50
2011,08,21,16,18,25.50
2011,08,21,16,19,25.50
2011,08,21,16,20,25.50
2011,08,21,16,21,25.50
2011,08,21,16,22,25.50
2011,08,21,16,23,25.50
2011,08,21,16,24,25.40
2011,08,21,16,25,25.40
2011,08,21,16,26,25.30
2011,08,21,16,27,25.30
2011,08,21,16,28,25.30
2011,08,21,16,29,25.20
2011,08,21,16,30,25.20
2011,08,21,16,31,25.10
2011,08,21,16,32,25.00
2011,08,21,16,33,25.00
2011,08,21,16,34,24.90
2011,08,21,16,35,24.90
2011,08,21,16,36,24.90
2011,08,21,16,37,24.90
2011,08,21,16,38,24.90
2011,08,21,16,39,24.90
2011,08,21,16,40,24.90
2011,08,21,16,41,24.90
2011,08,21,16,42,24.90
2011,08,21,16,43,24.90
2011,08,21,16,44,24.90
2011,08,21,16,45,24.90
2011,08,21,16,46,24.90
2011,08,21,16,47,24.90
2011,08,21,16,48,24.90
2011,08,21,16,49,24.90
2011,08,21,16,50,25.00
2011,08,21,16,51,25.00
2011,08,21,16,52,25.00
2011,08,21,16,53,25.10
2011,08,21,16,54,25.10
2011,08,21,16,55,25.10
2011,08,21,16,56,25.10
2011,08,21,16,57,25.10
2011,08,21,16,58,25.10
2011,08,21,16,59,25.20
2011,08,21,17,00,25.20
2011,08,21,17,01,25.20
2011,08,21,17,02,25.20
2011,08,21,17,03,25.30
2011,08,21,17,04,25.30
2011,08,21,17,05,25.40
2011,08,21,17,06,25.40
2011,08,21,17,07,25.50
2011,08,21,17,08,25.50
2011,08,21,17,09,25.50
2011,08,21,17,10,25.50
2011,08,21,17,11,25.60
2011,08,21,17,12,25.70
2011,08,21,17,13,25.70
2011,08,21,17,14,25.80
2011,08,21,17,15,25.80
2011,08,21,17,16,25.80
2011,08,21,17,17,25.90
2011,08,21,17,18,26.00
2011,08,21,17,19,26.00